This is the latest recevied weather packets stored in our database for station/object KQ7A. If no packets are shown the sender has not sent any weather packets the latest 10 day(s).
| Time | Temp. | Humidity | Pressure | Rain* | Wind** | Luminosity | Snow |
|---|---|---|---|---|---|---|---|
| 1778060286 | 6.67° C | 88% | 1018.2 hPa | 0 mm | - | 0 W/m² | - |
| 1778059983 | 7.22° C | 87% | 1018.2 hPa | 0 mm | - | 0 W/m² | - |
| 1778059681 | 7.22° C | 88% | 1018.3 hPa | 0 mm | - | 0 W/m² | - |
| 1778059378 | 7.22° C | 87% | 1018.4 hPa | 0 mm | - | 0 W/m² | - |
| 1778059075 | 7.22° C | 88% | 1017.8 hPa | 0 mm | - | 0 W/m² | - |
| 1778058773 | 7.22° C | 88% | 1018.1 hPa | 0 mm | - | 0 W/m² | - |
| 1778058471 | 7.22° C | 87% | 1018.2 hPa | 0 mm | - | 0 W/m² | - |
| 1778058167 | 7.22° C | 87% | 1017.8 hPa | 0 mm | - | 0 W/m² | - |
| 1778057864 | 7.22° C | 87% | 1017.9 hPa | 0 mm | - | 0 W/m² | - |
| 1778057560 | 7.22° C | 87% | 1017.9 hPa | 0 mm | - | 0 W/m² | - |
| 1778057257 | 7.22° C | 87% | 1017.8 hPa | 0 mm | - | 0 W/m² | - |
| 1778056953 | 7.22° C | 87% | 1017.6 hPa | 0 mm | - | 0 W/m² | - |
| 1778056651 | 7.78° C | 85% | 1018.1 hPa | 0 mm | - | 0 W/m² | - |
| 1778056348 | 7.78° C | 86% | 1018.1 hPa | 0 mm | - | 0 W/m² | - |
| 1778056045 | 7.22° C | 87% | 1018.1 hPa | 0 mm | - | 0 W/m² | - |
| 1778055741 | 7.22° C | 88% | 1018.1 hPa | 0 mm | - | 0 W/m² | - |
| 1778055439 | 7.22° C | 88% | 1017.8 hPa | 0 mm | - | 0 W/m² | - |
| 1778055136 | 7.78° C | 86% | 1017.9 hPa | 0 mm | - | 0 W/m² | - |
| 1778054834 | 7.78° C | 84% | 1017.8 hPa | 0 mm | - | 0 W/m² | - |
| 1778054530 | 7.78° C | 83% | 1017.7 hPa | 0 mm | - | 0 W/m² | - |
| 1778054228 | 7.78° C | 85% | 1017.9 hPa | 0 mm | - | 0 W/m² | - |
| 1778053924 | 8.33° C | 82% | 1017.7 hPa | 0 mm | - | 0 W/m² | - |
| 1778053623 | 8.33° C | 83% | 1017.6 hPa | 0 mm | - | 0 W/m² | - |
| 1778053319 | 8.33° C | 83% | 1017.8 hPa | 0 mm | - | 0 W/m² | - |
| 1778053017 | 8.33° C | 85% | 1017.8 hPa | 0 mm | - | 0 W/m² | - |
* Rain latest hour (hover to see other rain measurements)
** Current wind speed in m/s (hover to see current wind gust speed)